Tracking 23114 objects as of 14-May-2021
HD Live streaming from Space Station
objects crossing your sky now

CZ-4C DEB

Track CZ-4C DEB now!
10-day predictions


NORAD ID: 39231
Int'l Code: 2013-037H
Perigee: 676.1 km
Apogee: 1,043.4 km
Inclination: 98.1 °
Period: 102.0 minutes
Semi major axis: 7230 km
RCS: Unknown
Launch date: July 19, 2013
Source: People's Republic of China (PRC)
Launch site: Taiyaun Space Center, China (TSC)

Note: This is SATELLITE DEBRIS
aabbcc
Your satellite tracking list
Your tracking list is empty




NASA's NSSDC Master Catalog

Two Line Element Set (TLE):
1 39231U 13037H   21132.63099480  .00000403  00000-0  17954-3 0  9996
2 39231  98.1117 282.1817 0253977 234.0024 123.7364 14.11985335397313
Source of the keplerian elements: AFSPC